STARLINK-11517 [DTC] (62559 NORAD) Tracking and Keplerian Element Data

This shows tracking and keplerian element data for the satellite.

Feedback or suggestion? Click here.




ElementValue
Catalog62559
NameSTARLINK-11517 [DTC]
Epoch Orbit493
Epoch Day35.04311166
Epoch Year2025
RAAN26.5798
Inclination43.0002
Eccentricity0.0004211
Argument of Perigee298.4718
Mean Anonmoly61.5728
Mean Motion15.77851605
Decay Rate3.487E-05
L11 62559U 25006F 25035.04311166 .00003487 00000+0 22911-4 0 9997
L22 62559 43.0002 26.5798 0004211 298.4718 61.5728 15.77851605 4932



Live tracking and technical data element details for STARLINK-11517 [DTC] (NORAD 62559). STARLINK-11517 [DTC] can be tracked NOW for your location showing map with azimuth and elevation plus other details from your city location.







IsCatalogInMostPopularTable: catalog: 62559, numindb: 14
Update: records affected: 1



GetName: 62559 STARLINK-11517 [DTC]

Hit Count: updated at: Sun, 18 May 2025 23:37:40 GMT